Time,TemperatureF,DewpointF,PressureIn,WindDirection,WindDirectionDegrees,WindSpeedMPH,WindSpeedGustMPH,Humidity,HourlyPrecipIn,Conditions,Clouds,dailyrainin,SoftwareType,DateUTC
2013-05-11 00:01:00,73.2,69.8,30.05,West,281,0.0,0.0,89,0.00,,,0.00,WUHU216DAVISVP2,2013-05-11 04:01:00,
2013-05-11 00:06:00,73.0,69.6,30.05,West,281,0.0,0.0,89,0.00,,,0.00,WUHU216DAVISVP2,2013-05-11 04:06:00,
2013-05-11 00:11:00,72.9,69.5,30.05,West,281,0.0,0.0,89,0.00,,,0.00,WUHU216DAVISVP2,2013-05-11 04:11:00,
2013-05-11 00:16:00,72.7,69.6,30.05,West,281,0.0,0.0,90,0.00,,,0.00,WUHU216DAVISVP2,2013-05-11 04:16:00,
2013-05-11 00:21:00,72.6,69.5,30.05,West,281,0.0,0.0,90,0.00,,,0.00,WUHU216DAVISVP2,2013-05-11 04:21:00,
2013-05-11 00:26:00,72.4,69.3,30.05,West,281,0.0,0.0,90,0.00,,,0.00,WUHU216DAVISVP2,2013-05-11 04:26:00,
2013-05-11 00:31:00,72.4,69.6,30.04,West,281,0.0,0.0,91,0.00,,,0.00,WUHU216DAVISVP2,2013-05-11 04:31:00,
2013-05-11 00:36:00,72.4,69.6,30.04,West,281,0.0,0.0,91,0.00,,,0.00,WUHU216DAVISVP2,2013-05-11 04:36:00,
2013-05-11 00:41:00,72.3,69.5,30.04,West,281,0.0,0.0,91,0.00,,,0.00,WUHU216DAVISVP2,2013-05-11 04:41:00,
2013-05-11 00:46:00,72.2,69.4,30.03,West,281,0.0,0.0,91,0.00,,,0.00,WUHU216DAVISVP2,2013-05-11 04:46:00,
2013-05-11 00:51:00,72.2,69.4,30.03,West,281,0.0,0.0,91,0.00,,,0.00,WUHU216DAVISVP2,2013-05-11 04:51:00,
2013-05-11 00:56:00,72.2,69.4,30.03,WNW,302,0.0,1.0,91,0.00,,,0.00,WUHU216DAVISVP2,2013-05-11 04:56:00,
2013-05-11 01:01:00,72.3,69.8,30.03,NW,304,0.0,1.0,92,0.00,,,0.00,WUHU216DAVISVP2,2013-05-11 05:01:00,
2013-05-11 01:06:00,72.3,69.5,30.03,NW,304,0.0,1.0,91,0.00,,,0.00,WUHU216DAVISVP2,2013-05-11 05:06:00,
2013-05-11 01:11:00,72.3,69.5,30.03,East,80,0.0,1.0,91,0.00,,,0.00,WUHU216DAVISVP2,2013-05-11 05:11:00,
2013-05-11 01:16:00,72.3,69.5,30.04,East,80,0.0,1.0,91,0.00,,,0.00,WUHU216DAVISVP2,2013-05-11 05:16:00,
2013-05-11 01:21:00,72.3,69.8,30.03,East,80,0.0,0.0,92,0.00,,,0.00,WUHU216DAVISVP2,2013-05-11 05:21:00,
2013-05-11 01:26:00,72.2,69.7,30.03,East,80,0.0,0.0,92,0.00,,,0.00,WUHU216DAVISVP2,2013-05-11 05:26:00,
2013-05-11 01:31:00,72.2,69.7,30.03,East,80,0.0,0.0,92,0.00,,,0.00,WUHU216DAVISVP2,2013-05-11 05:31:00,
2013-05-11 01:36:00,72.1,69.6,30.03,East,80,0.0,0.0,92,0.00,,,0.00,WUHU216DAVISVP2,2013-05-11 05:36:00,
2013-05-11 01:41:00,72.1,69.6,30.03,East,80,0.0,0.0,92,0.00,,,0.00,WUHU216DAVISVP2,2013-05-11 05:41:00,
2013-05-11 01:46:00,72.0,69.5,30.03,East,80,0.0,0.0,92,0.00,,,0.00,WUHU216DAVISVP2,2013-05-11 05:46:00,
2013-05-11 01:51:00,71.9,69.4,30.02,East,80,0.0,0.0,92,0.00,,,0.00,WUHU216DAVISVP2,2013-05-11 05:51:00,
2013-05-11 01:56:00,71.9,69.4,30.02,East,80,0.0,0.0,92,0.00,,,0.00,WUHU216DAVISVP2,2013-05-11 05:56:00,
2013-05-11 02:01:00,71.8,69.3,30.02,East,80,0.0,0.0,92,0.00,,,0.00,WUHU216DAVISVP2,2013-05-11 06:01:00,
2013-05-11 02:06:00,71.8,69.6,30.02,East,80,0.0,0.0,93,0.00,,,0.00,WUHU216DAVISVP2,2013-05-11 06:06:00,
2013-05-11 02:11:00,71.8,69.6,30.02,East,80,0.0,0.0,93,0.00,,,0.00,WUHU216DAVISVP2,2013-05-11 06:11:00,
2013-05-11 02:16:00,71.7,69.5,30.02,East,80,0.0,0.0,93,0.00,,,0.00,WUHU216DAVISVP2,2013-05-11 06:16:00,
2013-05-11 02:21:00,71.7,69.5,30.02,East,80,0.0,0.0,93,0.00,,,0.00,WUHU216DAVISVP2,2013-05-11 06:21:00,
2013-05-11 02:26:00,71.6,69.4,30.02,East,80,0.0,0.0,93,0.00,,,0.00,WUHU216DAVISVP2,2013-05-11 06:26:00,
2013-05-11 02:31:00,71.5,69.3,30.02,East,80,0.0,0.0,93,0.00,,,0.00,WUHU216DAVISVP2,2013-05-11 06:31:00,
2013-05-11 02:36:00,71.5,69.3,30.02,East,80,0.0,0.0,93,0.00,,,0.00,WUHU216DAVISVP2,2013-05-11 06:36:00,
2013-05-11 02:41:00,71.4,69.2,30.02,East,80,0.0,0.0,93,0.00,,,0.00,WUHU216DAVISVP2,2013-05-11 06:41:00,
2013-05-11 02:46:00,71.3,69.1,30.02,East,80,0.0,0.0,93,0.00,,,0.00,WUHU216DAVISVP2,2013-05-11 06:46:00,
2013-05-11 02:51:00,71.3,69.1,30.02,East,80,0.0,0.0,93,0.00,,,0.00,WUHU216DAVISVP2,2013-05-11 06:51:00,
2013-05-11 02:56:00,71.2,69.0,30.02,East,80,0.0,0.0,93,0.00,,,0.00,WUHU216DAVISVP2,2013-05-11 06:56:00,
2013-05-11 03:01:00,71.2,69.4,30.02,East,80,0.0,0.0,94,0.00,,,0.00,WUHU216DAVISVP2,2013-05-11 07:01:00,
2013-05-11 03:06:00,71.2,69.4,30.02,East,80,0.0,0.0,94,0.00,,,0.00,WUHU216DAVISVP2,2013-05-11 07:06:00,
2013-05-11 03:11:00,71.2,69.4,30.01,East,80,0.0,0.0,94,0.00,,,0.00,WUHU216DAVISVP2,2013-05-11 07:11:00,
2013-05-11 03:16:00,71.2,69.4,30.01,East,80,0.0,0.0,94,0.00,,,0.00,WUHU216DAVISVP2,2013-05-11 07:16:00,
2013-05-11 03:21:00,71.2,69.4,30.01,East,80,0.0,0.0,94,0.00,,,0.00,WUHU216DAVISVP2,2013-05-11 07:21:00,
2013-05-11 03:26:00,71.2,69.4,30.01,East,80,0.0,0.0,94,0.00,,,0.00,WUHU216DAVISVP2,2013-05-11 07:26:00,
2013-05-11 03:31:00,71.2,69.4,30.01,East,80,0.0,0.0,94,0.00,,,0.00,WUHU216DAVISVP2,2013-05-11 07:31:00,
2013-05-11 03:36:00,71.1,69.3,30.01,East,80,0.0,0.0,94,0.00,,,0.00,WUHU216DAVISVP2,2013-05-11 07:36:00,
2013-05-11 03:41:00,71.0,69.2,30.02,East,80,0.0,0.0,94,0.00,,,0.00,WUHU216DAVISVP2,2013-05-11 07:41:00,
2013-05-11 03:46:00,71.0,69.2,30.01,East,80,0.0,0.0,94,0.00,,,0.00,WUHU216DAVISVP2,2013-05-11 07:46:00,
2013-05-11 03:51:00,70.9,69.1,30.01,East,80,0.0,0.0,94,0.00,,,0.00,WUHU216DAVISVP2,2013-05-11 07:51:00,
2013-05-11 03:56:00,70.9,69.1,30.01,East,80,0.0,0.0,94,0.00,,,0.00,WUHU216DAVISVP2,2013-05-11 07:56:00,
2013-05-11 04:01:00,70.8,69.0,30.00,East,80,0.0,0.0,94,0.00,,,0.00,WUHU216DAVISVP2,2013-05-11 08:01:00,
2013-05-11 04:06:00,70.6,68.8,30.01,East,80,0.0,0.0,94,0.00,,,0.00,WUHU216DAVISVP2,2013-05-11 08:06:00,
2013-05-11 04:11:00,70.6,68.8,30.01,East,80,0.0,0.0,94,0.00,,,0.00,WUHU216DAVISVP2,2013-05-11 08:11:00,
2013-05-11 04:17:00,70.4,68.6,30.00,East,80,0.0,0.0,94,0.00,,,0.00,WUHU216DAVISVP2,2013-05-11 08:17:00,
2013-05-11 04:21:00,70.3,68.5,30.00,East,80,0.0,0.0,94,0.00,,,0.00,WUHU216DAVISVP2,2013-05-11 08:21:00,
2013-05-11 04:27:00,70.2,68.4,30.00,East,80,0.0,0.0,94,0.00,,,0.00,WUHU216DAVISVP2,2013-05-11 08:27:00,
2013-05-11 04:32:00,70.1,68.3,30.00,East,80,0.0,0.0,94,0.00,,,0.00,WUHU216DAVISVP2,2013-05-11 08:32:00,
2013-05-11 04:37:00,70.0,68.2,30.00,East,80,0.0,0.0,94,0.00,,,0.00,WUHU216DAVISVP2,2013-05-11 08:37:00,
2013-05-11 04:42:00,69.8,68.0,29.99,East,80,0.0,0.0,94,0.00,,,0.00,WUHU216DAVISVP2,2013-05-11 08:42:00,
2013-05-11 04:47:00,69.7,68.2,29.99,East,80,0.0,0.0,95,0.00,,,0.00,WUHU216DAVISVP2,2013-05-11 08:47:00,
2013-05-11 04:52:00,69.6,68.1,29.98,East,80,0.0,0.0,95,0.00,,,0.00,WUHU216DAVISVP2,2013-05-11 08:52:00,
2013-05-11 04:57:00,69.5,68.0,29.98,East,79,0.0,0.0,95,0.00,,,0.00,WUHU216DAVISVP2,2013-05-11 08:57:00,
2013-05-11 05:02:00,69.4,67.9,29.98,East,80,0.0,0.0,95,0.00,,,0.00,WUHU216DAVISVP2,2013-05-11 09:02:00,
2013-05-11 05:07:00,69.4,67.9,29.98,East,80,0.0,0.0,95,0.00,,,0.00,WUHU216DAVISVP2,2013-05-11 09:07:00,
2013-05-11 05:12:00,69.3,67.8,29.98,East,79,0.0,0.0,95,0.00,,,0.00,WUHU216DAVISVP2,2013-05-11 09:12:00,
2013-05-11 05:17:00,69.3,67.8,29.98,East,79,0.0,0.0,95,0.00,,,0.00,WUHU216DAVISVP2,2013-05-11 09:17:00,
2013-05-11 05:22:00,69.2,67.7,29.98,East,80,0.0,0.0,95,0.00,,,0.00,WUHU216DAVISVP2,2013-05-11 09:22:00,
2013-05-11 05:27:00,69.2,67.7,29.99,East,79,0.0,0.0,95,0.00,,,0.00,WUHU216DAVISVP2,2013-05-11 09:27:00,
2013-05-11 05:32:00,69.2,67.7,29.99,East,79,0.0,0.0,95,0.00,,,0.00,WUHU216DAVISVP2,2013-05-11 09:32:00,
2013-05-11 05:37:00,69.2,67.7,29.98,East,79,0.0,0.0,95,0.00,,,0.00,WUHU216DAVISVP2,2013-05-11 09:37:00,
2013-05-11 05:42:00,69.2,67.7,29.99,East,79,0.0,0.0,95,0.00,,,0.00,WUHU216DAVISVP2,2013-05-11 09:42:00,
2013-05-11 05:47:00,69.4,67.9,29.99,East,79,0.0,0.0,95,0.00,,,0.00,WUHU216DAVISVP2,2013-05-11 09:47:00,
2013-05-11 05:52:00,69.4,67.9,29.99,East,79,0.0,0.0,95,0.00,,,0.00,WUHU216DAVISVP2,2013-05-11 09:52:00,
2013-05-11 05:57:00,69.4,67.9,29.99,East,79,0.0,0.0,95,0.00,,,0.00,WUHU216DAVISVP2,2013-05-11 09:57:00,
2013-05-11 06:02:00,69.4,67.6,29.99,East,79,0.0,0.0,94,0.00,,,0.00,WUHU216DAVISVP2,2013-05-11 10:02:00,
2013-05-11 06:07:00,69.4,67.6,30.00,East,79,0.0,0.0,94,0.00,,,0.00,WUHU216DAVISVP2,2013-05-11 10:07:00,
2013-05-11 06:12:00,69.3,67.5,29.99,East,79,0.0,0.0,94,0.00,,,0.00,WUHU216DAVISVP2,2013-05-11 10:12:00,
2013-05-11 06:17:00,69.3,67.5,30.00,East,79,0.0,0.0,94,0.00,,,0.00,WUHU216DAVISVP2,2013-05-11 10:17:00,
2013-05-11 06:22:00,69.3,67.5,30.00,East,79,0.0,0.0,94,0.00,,,0.00,WUHU216DAVISVP2,2013-05-11 10:22:00,
2013-05-11 06:27:00,69.2,67.4,30.00,East,79,0.0,0.0,94,0.00,,,0.00,WUHU216DAVISVP2,2013-05-11 10:27:00,
2013-05-11 06:32:00,69.1,67.3,30.01,East,79,0.0,0.0,94,0.00,,,0.00,WUHU216DAVISVP2,2013-05-11 10:32:00,
2013-05-11 06:37:00,69.0,67.2,30.01,East,79,0.0,0.0,94,0.00,,,0.00,WUHU216DAVISVP2,2013-05-11 10:37:00,
2013-05-11 06:42:00,69.0,67.2,30.02,East,79,0.0,0.0,94,0.00,,,0.00,WUHU216DAVISVP2,2013-05-11 10:42:00,
2013-05-11 06:47:00,68.9,67.1,30.02,East,79,0.0,0.0,94,0.00,,,0.00,WUHU216DAVISVP2,2013-05-11 10:47:00,
2013-05-11 06:52:00,68.9,67.1,30.02,East,79,0.0,0.0,94,0.00,,,0.00,WUHU216DAVISVP2,2013-05-11 10:52:00,
2013-05-11 06:57:00,68.8,67.0,30.02,East,79,0.0,0.0,94,0.00,,,0.00,WUHU216DAVISVP2,2013-05-11 10:57:00,
2013-05-11 07:02:00,68.8,66.7,30.02,East,79,0.0,0.0,93,0.00,,,0.00,WUHU216DAVISVP2,2013-05-11 11:02:00,
2013-05-11 07:07:00,68.8,66.7,30.02,East,79,0.0,0.0,93,0.00,,,0.00,WUHU216DAVISVP2,2013-05-11 11:07:00,
2013-05-11 07:12:00,68.8,66.7,30.02,East,79,0.0,0.0,93,0.00,,,0.00,WUHU216DAVISVP2,2013-05-11 11:12:00,
2013-05-11 07:17:00,68.8,67.0,30.02,East,79,0.0,0.0,94,0.00,,,0.00,WUHU216DAVISVP2,2013-05-11 11:17:00,
2013-05-11 07:22:00,68.9,67.1,30.02,East,79,0.0,0.0,94,0.00,,,0.00,WUHU216DAVISVP2,2013-05-11 11:22:00,
2013-05-11 07:27:00,68.9,67.1,30.02,East,79,0.0,0.0,94,0.00,,,0.00,WUHU216DAVISVP2,2013-05-11 11:27:00,
2013-05-11 07:32:00,68.9,67.1,30.02,East,79,0.0,0.0,94,0.00,,,0.00,WUHU216DAVISVP2,2013-05-11 11:32:00,
2013-05-11 07:37:00,68.9,67.1,30.02,East,79,0.0,0.0,94,0.00,,,0.00,WUHU216DAVISVP2,2013-05-11 11:37:00,
2013-05-11 07:42:00,69.0,66.9,30.01,East,79,0.0,0.0,93,0.00,,,0.00,WUHU216DAVISVP2,2013-05-11 11:42:00,
2013-05-11 07:47:00,69.0,67.2,30.01,East,79,0.0,0.0,94,0.00,,,0.00,WUHU216DAVISVP2,2013-05-11 11:47:00,
2013-05-11 07:52:00,69.1,67.3,30.01,East,79,0.0,0.0,94,0.00,,,0.00,WUHU216DAVISVP2,2013-05-11 11:52:00,
2013-05-11 07:57:00,69.2,67.4,30.01,East,79,0.0,0.0,94,0.00,,,0.00,WUHU216DAVISVP2,2013-05-11 11:57:00,
2013-05-11 08:02:00,69.3,67.5,30.01,East,79,0.0,0.0,94,0.00,,,0.00,WUHU216DAVISVP2,2013-05-11 12:02:00,
2013-05-11 08:07:00,69.4,67.6,30.01,East,79,0.0,0.0,94,0.00,,,0.00,WUHU216DAVISVP2,2013-05-11 12:07:00,
2013-05-11 08:12:00,69.5,67.4,30.01,East,80,0.0,1.0,93,0.00,,,0.00,WUHU216DAVISVP2,2013-05-11 12:12:00,
2013-05-11 08:17:00,69.7,67.6,30.01,East,80,0.0,1.0,93,0.00,,,0.00,WUHU216DAVISVP2,2013-05-11 12:17:00,
2013-05-11 08:22:00,69.8,67.3,30.01,East,80,0.0,0.0,92,0.00,,,0.00,WUHU216DAVISVP2,2013-05-11 12:22:00,
2013-05-11 08:27:00,70.0,67.5,30.01,East,80,0.0,0.0,92,0.00,,,0.00,WUHU216DAVISVP2,2013-05-11 12:27:00,
2013-05-11 08:32:00,70.1,67.6,30.01,East,80,0.0,0.0,92,0.00,,,0.00,WUHU216DAVISVP2,2013-05-11 12:32:00,
2013-05-11 08:37:00,70.3,67.5,30.01,East,80,0.0,0.0,91,0.00,,,0.00,WUHU216DAVISVP2,2013-05-11 12:37:00,
2013-05-11 08:42:00,70.4,67.3,30.02,East,80,0.0,0.0,90,0.00,,,0.00,WUHU216DAVISVP2,2013-05-11 12:42:00,
2013-05-11 08:47:00,70.6,67.5,30.02,East,80,0.0,0.0,90,0.00,,,0.00,WUHU216DAVISVP2,2013-05-11 12:47:00,
2013-05-11 08:52:00,70.7,67.6,30.02,East,79,0.0,0.0,90,0.00,,,0.00,WUHU216DAVISVP2,2013-05-11 12:52:00,
2013-05-11 08:57:00,70.8,67.7,30.02,East,80,0.0,0.0,90,0.00,,,0.00,WUHU216DAVISVP2,2013-05-11 12:57:00,
2013-05-11 09:02:00,71.0,67.6,30.02,East,80,0.0,0.0,89,0.00,,,0.00,WUHU216DAVISVP2,2013-05-11 13:02:00,
2013-05-11 09:07:00,71.1,67.7,30.02,East,80,0.0,0.0,89,0.00,,,0.00,WUHU216DAVISVP2,2013-05-11 13:07:00,
2013-05-11 09:12:00,71.3,67.9,30.02,East,80,0.0,0.0,89,0.00,,,0.00,WUHU216DAVISVP2,2013-05-11 13:12:00,
2013-05-11 09:17:00,71.6,67.9,30.02,East,80,0.0,0.0,88,0.00,,,0.00,WUHU216DAVISVP2,2013-05-11 13:17:00,
2013-05-11 09:22:00,71.8,68.1,30.02,East,80,0.0,0.0,88,0.00,,,0.00,WUHU216DAVISVP2,2013-05-11 13:22:00,
2013-05-11 09:27:00,72.1,68.0,30.02,East,80,0.0,0.0,87,0.00,,,0.00,WUHU216DAVISVP2,2013-05-11 13:27:00,
2013-05-11 09:32:00,72.4,68.0,30.02,East,80,0.0,0.0,86,0.00,,,0.00,WUHU216DAVISVP2,2013-05-11 13:32:00,
2013-05-11 09:37:00,72.6,67.5,30.02,East,80,0.0,1.0,84,0.00,,,0.00,WUHU216DAVISVP2,2013-05-11 13:37:00,
2013-05-11 09:42:00,73.1,67.7,30.02,ENE,71,0.0,2.0,83,0.00,,,0.00,WUHU216DAVISVP2,2013-05-11 13:42:00,
2013-05-11 09:47:00,73.7,67.9,30.02,North,5,0.0,2.0,82,0.00,,,0.00,WUHU216DAVISVP2,2013-05-11 13:47:00,
2013-05-11 09:52:00,74.3,68.2,30.02,NNE,13,0.0,1.0,81,0.00,,,0.00,WUHU216DAVISVP2,2013-05-11 13:52:00,
2013-05-11 09:57:00,75.0,68.5,30.02,SSW,205,2.0,4.0,80,0.00,,,0.00,WUHU216DAVISVP2,2013-05-11 13:57:00,
2013-05-11 10:02:00,75.7,68.8,30.02,ESE,104,0.0,4.0,79,0.00,,,0.00,WUHU216DAVISVP2,2013-05-11 14:02:00,
2013-05-11 10:07:00,76.3,69.4,30.02,SSW,209,0.0,4.0,79,0.00,,,0.00,WUHU216DAVISVP2,2013-05-11 14:07:00,
2013-05-11 10:12:00,76.9,68.9,30.02,SW,228,0.0,5.0,76,0.00,,,0.00,WUHU216DAVISVP2,2013-05-11 14:12:00,
2013-05-11 10:17:00,77.3,68.9,30.02,East,86,0.0,5.0,75,0.00,,,0.00,WUHU216DAVISVP2,2013-05-11 14:17:00,
2013-05-11 10:22:00,77.7,68.9,30.02,East,93,0.0,1.0,74,0.00,,,0.00,WUHU216DAVISVP2,2013-05-11 14:22:00,
2013-05-11 10:27:00,78.0,68.8,30.02,West,279,0.0,3.0,73,0.00,,,0.00,WUHU216DAVISVP2,2013-05-11 14:27:00,
2013-05-11 10:32:00,78.4,69.2,30.02,NE,42,1.0,3.0,73,0.00,,,0.00,WUHU216DAVISVP2,2013-05-11 14:32:00,
2013-05-11 10:37:00,78.7,69.5,30.02,SSW,208,0.0,3.0,73,0.00,,,0.00,WUHU216DAVISVP2,2013-05-11 14:37:00,
2013-05-11 10:42:00,79.1,69.9,30.02,SSW,207,0.0,3.0,73,0.00,,,0.00,WUHU216DAVISVP2,2013-05-11 14:42:00,
2013-05-11 10:47:00,79.5,69.5,30.02,East,82,0.0,3.0,71,0.00,,,0.00,WUHU216DAVISVP2,2013-05-11 14:47:00,
2013-05-11 10:52:00,79.8,69.4,30.02,NE,53,1.0,3.0,70,0.00,,,0.00,WUHU216DAVISVP2,2013-05-11 14:52:00,
2013-05-11 10:57:00,80.1,69.7,30.02,SSW,213,0.0,4.0,70,0.00,,,0.00,WUHU216DAVISVP2,2013-05-11 14:57:00,
2013-05-11 11:02:00,80.4,69.5,30.02,ENE,76,0.0,5.0,69,0.00,,,0.00,WUHU216DAVISVP2,2013-05-11 15:02:00,
2013-05-11 11:07:00,80.5,70.0,30.02,SW,225,0.0,6.0,70,0.00,,,0.00,WUHU216DAVISVP2,2013-05-11 15:07:00,
2013-05-11 11:12:00,80.8,70.3,30.01,SE,130,0.0,6.0,70,0.00,,,0.00,WUHU216DAVISVP2,2013-05-11 15:12:00,
2013-05-11 11:17:00,81.1,70.6,30.02,South,185,0.0,3.0,70,0.00,,,0.00,WUHU216DAVISVP2,2013-05-11 15:17:00,
2013-05-11 11:22:00,81.6,70.7,30.02,SW,214,0.0,6.0,69,0.00,,,0.00,WUHU216DAVISVP2,2013-05-11 15:22:00,
2013-05-11 11:27:00,81.8,71.3,30.01,ESE,123,0.0,6.0,70,0.00,,,0.00,WUHU216DAVISVP2,2013-05-11 15:27:00,
2013-05-11 11:32:00,82.1,71.6,30.01,SSW,194,1.0,6.0,70,0.00,,,0.00,WUHU216DAVISVP2,2013-05-11 15:32:00,
2013-05-11 11:37:00,82.3,71.8,30.00,SSW,196,0.0,6.0,70,0.00,,,0.00,WUHU216DAVISVP2,2013-05-11 15:37:00,
2013-05-11 11:42:00,82.7,72.2,30.01,ENE,57,0.0,3.0,70,0.00,,,0.00,WUHU216DAVISVP2,2013-05-11 15:42:00,
2013-05-11 11:47:00,82.9,72.3,30.00,SSW,201,0.0,5.0,70,0.00,,,0.00,WUHU216DAVISVP2,2013-05-11 15:47:00,
2013-05-11 11:52:00,83.1,73.0,30.00,ESE,110,0.0,5.0,71,0.00,,,0.00,WUHU216DAVISVP2,2013-05-11 15:52:00,
2013-05-11 11:57:00,83.2,72.6,30.00,SE,140,0.0,4.0,70,0.00,,,0.00,WUHU216DAVISVP2,2013-05-11 15:57:00,
2013-05-11 12:02:00,83.3,72.7,30.00,ENE,67,2.0,4.0,70,0.00,,,0.00,WUHU216DAVISVP2,2013-05-11 16:02:00,
2013-05-11 12:07:00,83.2,72.6,30.00,East,97,0.0,5.0,70,0.00,,,0.00,WUHU216DAVISVP2,2013-05-11 16:07:00,
2013-05-11 12:12:00,83.5,73.3,30.00,ENE,62,0.0,5.0,71,0.00,,,0.00,WUHU216DAVISVP2,2013-05-11 16:12:00,
2013-05-11 12:17:00,84.1,73.1,30.00,ENE,64,0.0,3.0,69,0.00,,,0.00,WUHU216DAVISVP2,2013-05-11 16:17:00,
2013-05-11 12:22:00,84.9,73.4,30.00,West,262,0.0,4.0,68,0.00,,,0.00,WUHU216DAVISVP2,2013-05-11 16:22:00,
2013-05-11 12:27:00,85.4,73.5,30.00,WSW,237,2.0,4.0,67,0.00,,,0.00,WUHU216DAVISVP2,2013-05-11 16:27:00,
2013-05-11 12:32:00,85.5,73.6,30.00,ENE,72,0.0,3.0,67,0.00,,,0.00,WUHU216DAVISVP2,2013-05-11 16:32:00,
2013-05-11 12:37:00,85.4,73.5,30.00,ESE,119,0.0,4.0,67,0.00,,,0.00,WUHU216DAVISVP2,2013-05-11 16:37:00,
2013-05-11 12:42:00,85.5,73.1,29.99,South,169,0.0,4.0,66,0.00,,,0.00,WUHU216DAVISVP2,2013-05-11 16:42:00,
2013-05-11 12:47:00,85.5,73.6,29.99,SSE,161,0.0,6.0,67,0.00,,,0.00,WUHU216DAVISVP2,2013-05-11 16:47:00,
2013-05-11 12:52:00,85.9,74.4,29.98,North,5,0.0,6.0,68,0.00,,,0.00,WUHU216DAVISVP2,2013-05-11 16:52:00,
2013-05-11 12:57:00,86.2,74.2,29.98,SW,227,3.0,6.0,67,0.00,,,0.00,WUHU216DAVISVP2,2013-05-11 16:57:00,
2013-05-11 13:02:00,86.3,73.4,29.98,East,82,0.0,6.0,65,0.00,,,0.00,WUHU216DAVISVP2,2013-05-11 17:02:00,
2013-05-11 13:07:00,86.8,73.9,29.98,SW,218,0.0,2.0,65,0.00,,,0.00,WUHU216DAVISVP2,2013-05-11 17:07:00,
2013-05-11 13:12:00,86.8,73.4,29.98,ESE,102,0.0,5.0,64,0.00,,,0.00,WUHU216DAVISVP2,2013-05-11 17:12:00,
2013-05-11 13:17:00,87.0,73.6,29.97,SSW,208,0.0,7.0,64,0.00,,,0.00,WUHU216DAVISVP2,2013-05-11 17:17:00,
2013-05-11 13:22:00,87.5,74.6,29.97,NE,53,0.0,7.0,65,0.00,,,0.00,WUHU216DAVISVP2,2013-05-11 17:22:00,
2013-05-11 13:27:00,88.0,74.1,29.97,SSW,194,3.0,6.0,63,0.00,,,0.00,WUHU216DAVISVP2,2013-05-11 17:27:00,
2013-05-11 13:32:00,88.3,73.4,29.96,ESE,104,0.0,6.0,61,0.00,,,0.00,WUHU216DAVISVP2,2013-05-11 17:32:00,
2013-05-11 13:37:00,88.7,73.8,29.96,SSE,162,0.0,5.0,61,0.00,,,0.00,WUHU216DAVISVP2,2013-05-11 17:37:00,
2013-05-11 13:42:00,89.0,73.6,29.96,SE,142,1.0,5.0,60,0.00,,,0.00,WUHU216DAVISVP2,2013-05-11 17:42:00,
2013-05-11 13:47:00,89.1,73.7,29.96,ENE,78,0.0,5.0,60,0.00,,,0.00,WUHU216DAVISVP2,2013-05-11 17:47:00,
2013-05-11 13:52:00,89.2,73.8,29.96,ENE,57,0.0,5.0,60,0.00,,,0.00,WUHU216DAVISVP2,2013-05-11 17:52:00,
2013-05-11 13:57:00,89.2,72.8,29.96,SSE,167,0.0,5.0,58,0.00,,,0.00,WUHU216DAVISVP2,2013-05-11 17:57:00,
2013-05-11 14:02:00,89.0,73.1,29.96,South,173,4.0,4.0,59,0.00,,,0.00,WUHU216DAVISVP2,2013-05-11 18:02:00,
2013-05-11 14:07:00,89.1,73.2,29.96,SE,130,0.0,5.0,59,0.00,,,0.00,WUHU216DAVISVP2,2013-05-11 18:07:00,
2013-05-11 14:12:00,89.4,73.0,29.96,East,94,0.0,5.0,58,0.00,,,0.00,WUHU216DAVISVP2,2013-05-11 18:12:00,
2013-05-11 14:17:00,89.6,72.6,29.96,SE,135,0.0,7.0,57,0.00,,,0.00,WUHU216DAVISVP2,2013-05-11 18:17:00,
2013-05-11 14:22:00,89.2,72.8,29.95,ESE,114,0.0,12.0,58,0.00,,,0.00,WUHU216DAVISVP2,2013-05-11 18:22:00,
2013-05-11 14:27:00,89.1,73.2,29.95,North,9,0.0,12.0,59,0.00,,,0.00,WUHU216DAVISVP2,2013-05-11 18:27:00,
2013-05-11 14:32:00,89.4,73.5,29.95,ESE,121,0.0,5.0,59,0.00,,,0.00,WUHU216DAVISVP2,2013-05-11 18:32:00,
2013-05-11 14:37:00,89.8,72.8,29.95,WNW,284,0.0,5.0,57,0.00,,,0.00,WUHU216DAVISVP2,2013-05-11 18:37:00,
2013-05-11 14:42:00,89.8,72.8,29.95,South,189,1.0,5.0,57,0.00,,,0.00,WUHU216DAVISVP2,2013-05-11 18:42:00,
2013-05-11 14:47:00,90.1,72.6,29.95,East,94,0.0,5.0,56,0.00,,,0.00,WUHU216DAVISVP2,2013-05-11 18:47:00,
2013-05-11 14:52:00,90.4,72.8,29.95,South,175,0.0,3.0,56,0.00,,,0.00,WUHU216DAVISVP2,2013-05-11 18:52:00,
2013-05-11 14:57:00,90.7,73.1,29.95,NE,49,0.0,7.0,56,0.00,,,0.00,WUHU216DAVISVP2,2013-05-11 18:57:00,
2013-05-11 15:02:00,90.8,73.2,29.95,SSE,167,0.0,7.0,56,0.00,,,0.00,WUHU216DAVISVP2,2013-05-11 19:02:00,
2013-05-11 15:07:00,90.9,73.3,29.94,NNE,19,0.0,6.0,56,0.00,,,0.00,WUHU216DAVISVP2,2013-05-11 19:07:00,
2013-05-11 15:12:00,91.3,72.0,29.94,SSE,167,0.0,6.0,53,0.00,,,0.00,WUHU216DAVISVP2,2013-05-11 19:12:00,
2013-05-11 15:17:00,91.7,72.4,29.95,WSW,239,0.0,3.0,53,0.00,,,0.00,WUHU216DAVISVP2,2013-05-11 19:17:00,
2013-05-11 15:22:00,91.8,72.5,29.94,West,260,0.0,3.0,53,0.00,,,0.00,WUHU216DAVISVP2,2013-05-11 19:22:00,
2013-05-11 15:27:00,91.1,72.4,29.94,South,182,0.0,3.0,54,0.00,,,0.00,WUHU216DAVISVP2,2013-05-11 19:27:00,
2013-05-11 15:32:00,90.5,72.4,29.94,South,186,0.0,3.0,55,0.00,,,0.00,WUHU216DAVISVP2,2013-05-11 19:32:00,
2013-05-11 15:37:00,89.8,72.3,29.94,North,360,0.0,4.0,56,0.00,,,0.00,WUHU216DAVISVP2,2013-05-11 19:37:00,
2013-05-11 15:42:00,89.4,71.9,29.94,East,101,0.0,4.0,56,0.00,,,0.00,WUHU216DAVISVP2,2013-05-11 19:42:00,
2013-05-11 15:47:00,89.5,72.5,29.94,South,186,3.0,4.0,57,0.00,,,0.00,WUHU216DAVISVP2,2013-05-11 19:47:00,
2013-05-11 15:52:00,89.6,72.1,29.93,South,184,0.0,4.0,56,0.00,,,0.00,WUHU216DAVISVP2,2013-05-11 19:52:00,
2013-05-11 15:57:00,89.7,72.7,29.93,South,169,0.0,4.0,57,0.00,,,0.00,WUHU216DAVISVP2,2013-05-11 19:57:00,
2013-05-11 16:02:00,90.1,72.0,29.93,WNW,299,3.0,4.0,55,0.00,,,0.00,WUHU216DAVISVP2,2013-05-11 20:02:00,
2013-05-11 16:07:00,90.2,72.1,29.92,ENE,61,0.0,4.0,55,0.00,,,0.00,WUHU216DAVISVP2,2013-05-11 20:07:00,
2013-05-11 16:12:00,89.7,72.2,29.92,ENE,57,0.0,3.0,56,0.00,,,0.00,WUHU216DAVISVP2,2013-05-11 20:12:00,
2013-05-11 16:17:00,89.5,72.0,29.91,SSE,153,0.0,3.0,56,0.00,,,0.00,WUHU216DAVISVP2,2013-05-11 20:17:00,
2013-05-11 16:22:00,89.1,71.6,29.91,ENE,71,0.0,4.0,56,0.00,,,0.00,WUHU216DAVISVP2,2013-05-11 20:22:00,
2013-05-11 16:27:00,88.8,71.9,29.92,SSW,193,0.0,4.0,57,0.00,,,0.00,WUHU216DAVISVP2,2013-05-11 20:27:00,
2013-05-11 16:32:00,88.4,71.0,29.92,SSE,161,1.0,2.0,56,0.00,,,0.00,WUHU216DAVISVP2,2013-05-11 20:32:00,
2013-05-11 16:37:00,88.0,71.1,29.92,South,175,1.0,4.0,57,0.00,,,0.00,WUHU216DAVISVP2,2013-05-11 20:37:00,
2013-05-11 16:42:00,87.7,70.8,29.93,South,180,1.0,5.0,57,0.00,,,0.00,WUHU216DAVISVP2,2013-05-11 20:42:00,
2013-05-11 16:47:00,87.5,71.7,29.93,East,94,0.0,5.0,59,0.00,,,0.00,WUHU216DAVISVP2,2013-05-11 20:47:00,
2013-05-11 16:52:00,86.1,70.4,29.93,NE,46,0.0,4.0,59,0.00,,,0.00,WUHU216DAVISVP2,2013-05-11 20:52:00,
2013-05-11 16:57:00,84.1,73.5,29.94,SSE,151,0.0,4.0,70,0.02,,,0.02,WUHU216DAVISVP2,2013-05-11 20:57:00,
2013-05-11 17:02:00,80.9,72.8,29.94,ENE,78,0.0,4.0,76,0.02,,,0.02,WUHU216DAVISVP2,2013-05-11 21:02:00,
2013-05-11 17:07:00,78.8,72.6,29.95,SSE,148,0.0,4.0,81,0.02,,,0.02,WUHU216DAVISVP2,2013-05-11 21:07:00,
2013-05-11 17:12:00,77.3,72.5,29.95,SE,146,0.0,1.0,85,0.02,,,0.02,WUHU216DAVISVP2,2013-05-11 21:12:00,
2013-05-11 17:17:00,76.6,72.5,29.95,East,80,1.0,3.0,87,0.02,,,0.02,WUHU216DAVISVP2,2013-05-11 21:17:00,
2013-05-11 17:22:00,76.2,72.7,29.95,East,80,0.0,3.0,89,0.02,,,0.02,WUHU216DAVISVP2,2013-05-11 21:22:00,
2013-05-11 17:27:00,76.2,73.0,29.95,SSW,194,0.0,1.0,90,0.02,,,0.02,WUHU216DAVISVP2,2013-05-11 21:27:00,
2013-05-11 17:32:00,76.4,73.6,29.95,SSW,195,0.0,1.0,91,0.02,,,0.02,WUHU216DAVISVP2,2013-05-11 21:32:00,
2013-05-11 17:37:00,76.4,73.6,29.95,SSW,192,0.0,1.0,91,0.02,,,0.02,WUHU216DAVISVP2,2013-05-11 21:37:00,
2013-05-11 17:42:00,76.4,73.6,29.95,South,191,0.0,0.0,91,0.02,,,0.02,WUHU216DAVISVP2,2013-05-11 21:42:00,
2013-05-11 17:47:00,76.4,73.6,29.95,SSW,192,0.0,1.0,91,0.02,,,0.02,WUHU216DAVISVP2,2013-05-11 21:47:00,
2013-05-11 17:52:00,76.4,73.9,29.95,SSW,192,0.0,1.0,92,0.02,,,0.02,WUHU216DAVISVP2,2013-05-11 21:52:00,
2013-05-11 17:57:00,76.3,73.8,29.95,East,79,0.0,1.0,92,0.00,,,0.02,WUHU216DAVISVP2,2013-05-11 21:57:00,
2013-05-11 18:02:00,76.3,73.8,29.95,East,79,0.0,1.0,92,0.00,,,0.02,WUHU216DAVISVP2,2013-05-11 22:02:00,
2013-05-11 18:07:00,76.3,73.8,29.95,East,79,0.0,1.0,92,0.00,,,0.02,WUHU216DAVISVP2,2013-05-11 22:07:00,
2013-05-11 18:12:00,76.4,73.9,29.94,East,79,0.0,1.0,92,0.00,,,0.02,WUHU216DAVISVP2,2013-05-11 22:12:00,
2013-05-11 18:17:00,76.6,74.1,29.95,East,79,0.0,0.0,92,0.00,,,0.02,WUHU216DAVISVP2,2013-05-11 22:17:00,
2013-05-11 18:22:00,76.7,74.2,29.95,North,10,0.0,1.0,92,0.00,,,0.02,WUHU216DAVISVP2,2013-05-11 22:22:00,
2013-05-11 18:27:00,76.7,73.9,29.95,NNE,15,0.0,1.0,91,0.00,,,0.02,WUHU216DAVISVP2,2013-05-11 22:27:00,
2013-05-11 18:32:00,76.8,73.6,29.95,NNE,15,0.0,1.0,90,0.00,,,0.02,WUHU216DAVISVP2,2013-05-11 22:32:00,
2013-05-11 18:37:00,76.9,73.4,29.96,NE,34,0.0,1.0,89,0.00,,,0.02,WUHU216DAVISVP2,2013-05-11 22:37:00,
2013-05-11 18:42:00,77.1,73.3,29.96,NNE,30,0.0,1.0,88,0.00,,,0.02,WUHU216DAVISVP2,2013-05-11 22:42:00,
2013-05-11 18:47:00,77.1,73.0,29.96,ESE,111,0.0,6.0,87,0.00,,,0.02,WUHU216DAVISVP2,2013-05-11 22:47:00,
2013-05-11 18:52:00,77.2,72.7,29.97,SSW,210,0.0,6.0,86,0.00,,,0.02,WUHU216DAVISVP2,2013-05-11 22:52:00,
2013-05-11 18:57:00,77.3,71.5,29.97,SSW,211,0.0,9.0,82,0.00,,,0.02,WUHU216DAVISVP2,2013-05-11 22:57:00,
2013-05-11 19:02:00,77.3,70.8,29.98,SSW,208,0.0,9.0,80,0.00,,,0.02,WUHU216DAVISVP2,2013-05-11 23:02:00,
2013-05-11 19:07:00,76.9,71.4,29.99,South,182,7.0,7.0,83,0.04,,,0.06,WUHU216DAVISVP2,2013-05-11 23:07:00,
2013-05-11 19:12:00,75.3,71.2,29.99,South,177,0.0,7.0,87,0.24,,,0.26,WUHU216DAVISVP2,2013-05-11 23:12:00,
2013-05-11 19:17:00,73.8,70.7,29.99,South,169,0.0,7.0,90,0.32,,,0.34,WUHU216DAVISVP2,2013-05-11 23:17:00,
2013-05-11 19:22:00,72.9,70.4,29.99,SSW,196,1.0,7.0,92,0.35,,,0.37,WUHU216DAVISVP2,2013-05-11 23:22:00,
2013-05-11 19:27:00,72.2,70.0,29.99,South,173,0.0,5.0,93,0.35,,,0.37,WUHU216DAVISVP2,2013-05-11 23:27:00,
2013-05-11 19:32:00,71.9,70.0,29.98,South,188,2.0,4.0,94,0.36,,,0.38,WUHU216DAVISVP2,2013-05-11 23:32:00,
2013-05-11 19:37:00,71.5,69.7,29.98,SSW,196,0.0,4.0,94,0.36,,,0.38,WUHU216DAVISVP2,2013-05-11 23:37:00,
2013-05-11 19:42:00,71.2,69.4,29.98,SSW,192,0.0,2.0,94,0.36,,,0.38,WUHU216DAVISVP2,2013-05-11 23:42:00,
2013-05-11 19:47:00,71.1,69.3,29.98,SSW,208,0.0,2.0,94,0.36,,,0.38,WUHU216DAVISVP2,2013-05-11 23:47:00,
2013-05-11 19:52:00,70.9,69.4,29.98,SSW,207,0.0,0.0,95,0.36,,,0.38,WUHU216DAVISVP2,2013-05-11 23:52:00,
2013-05-11 19:57:00,70.9,69.4,29.98,SSW,209,0.0,0.0,95,0.36,,,0.38,WUHU216DAVISVP2,2013-05-11 23:57:00,
2013-05-11 19:59:00,71.0,69.5,29.98,SSW,209,0.0,0.0,95,0.36,,,0.38,WUHU216DAVISVP2,2013-05-11 23:59:00,
2013-05-11 20:04:00,71.0,69.8,29.98,SSW,209,0.0,0.0,96,0.36,,,0.38,WUHU216DAVISVP2,2013-05-12 00:04:00,
2013-05-11 20:09:00,71.1,69.9,29.98,WSW,252,0.0,1.0,96,0.17,,,0.38,WUHU216DAVISVP2,2013-05-12 00:09:00,
2013-05-11 20:40:00,70.3,69.1,29.97,NE,51,0.0,1.0,96,0.00,,,0.38,WUHU216DAVISVP2,2013-05-12 00:40:00,
2013-05-11 20:45:00,70.2,69.0,29.97,NE,51,0.0,1.0,96,0.00,,,0.38,WUHU216DAVISVP2,2013-05-12 00:45:00,
2013-05-11 20:50:00,70.2,69.0,29.96,NE,51,0.0,0.0,96,0.00,,,0.38,WUHU216DAVISVP2,2013-05-12 00:50:00,
2013-05-11 20:56:00,70.2,69.0,29.95,NE,51,0.0,0.0,96,0.00,,,0.38,WUHU216DAVISVP2,2013-05-12 00:56:00,
2013-05-11 21:01:00,70.3,69.1,29.95,NE,51,0.0,0.0,96,0.00,,,0.38,WUHU216DAVISVP2,2013-05-12 01:01:00,
2013-05-11 21:05:00,70.3,69.1,29.95,NE,51,0.0,0.0,96,0.00,,,0.38,WUHU216DAVISVP2,2013-05-12 01:05:00,
2013-05-11 21:11:00,70.2,69.0,29.95,NE,50,0.0,0.0,96,0.00,,,0.38,WUHU216DAVISVP2,2013-05-12 01:11:00,
2013-05-11 21:16:00,70.1,68.9,29.94,NE,50,0.0,0.0,96,0.00,,,0.38,WUHU216DAVISVP2,2013-05-12 01:16:00,
2013-05-11 21:22:00,70.0,68.8,29.94,NE,50,0.0,0.0,96,0.00,,,0.38,WUHU216DAVISVP2,2013-05-12 01:22:00,
2013-05-11 21:27:00,69.9,68.7,29.94,NE,50,0.0,0.0,96,0.00,,,0.38,WUHU216DAVISVP2,2013-05-12 01:27:00,
2013-05-11 21:32:00,69.8,68.6,29.94,NE,50,0.0,0.0,96,0.00,,,0.38,WUHU216DAVISVP2,2013-05-12 01:32:00,
2013-05-11 21:37:00,69.7,68.5,29.94,NE,50,0.0,0.0,96,0.00,,,0.38,WUHU216DAVISVP2,2013-05-12 01:37:00,
2013-05-11 21:43:00,69.7,68.8,29.94,NE,50,0.0,0.0,97,0.00,,,0.38,WUHU216DAVISVP2,2013-05-12 01:43:00,
2013-05-11 21:49:00,69.6,68.4,29.94,NE,49,0.0,0.0,96,0.00,,,0.38,WUHU216DAVISVP2,2013-05-12 01:49:00,
2013-05-11 21:54:00,69.5,68.3,29.95,NE,49,0.0,0.0,96,0.00,,,0.38,WUHU216DAVISVP2,2013-05-12 01:54:00,
2013-05-11 21:59:00,69.5,68.6,29.96,NE,49,0.0,0.0,97,0.00,,,0.38,WUHU216DAVISVP2,2013-05-12 01:59:00,
2013-05-11 22:04:00,69.4,68.5,29.96,NE,49,0.0,0.0,97,0.00,,,0.38,WUHU216DAVISVP2,2013-05-12 02:04:00,
2013-05-11 22:10:00,69.4,68.5,29.96,NE,50,0.0,0.0,97,0.00,,,0.38,WUHU216DAVISVP2,2013-05-12 02:10:00,
2013-05-11 22:15:00,69.4,68.5,29.97,NE,49,0.0,0.0,97,0.00,,,0.38,WUHU216DAVISVP2,2013-05-12 02:15:00,
2013-05-11 22:20:00,69.4,68.5,29.97,NE,49,0.0,0.0,97,0.00,,,0.38,WUHU216DAVISVP2,2013-05-12 02:20:00,
2013-05-11 22:25:00,69.3,68.4,29.97,NE,49,0.0,0.0,97,0.00,,,0.38,WUHU216DAVISVP2,2013-05-12 02:25:00,
2013-05-11 22:30:00,69.3,68.4,29.97,NE,50,0.0,0.0,97,0.00,,,0.38,WUHU216DAVISVP2,2013-05-12 02:30:00,
2013-05-11 22:36:00,69.3,68.4,29.98,NE,50,0.0,0.0,97,0.00,,,0.38,WUHU216DAVISVP2,2013-05-12 02:36:00,
2013-05-11 22:41:00,69.2,68.3,29.98,NE,50,0.0,0.0,97,0.00,,,0.38,WUHU216DAVISVP2,2013-05-12 02:41:00,
2013-05-11 22:46:00,69.2,68.3,29.98,NE,50,0.0,0.0,97,0.00,,,0.38,WUHU216DAVISVP2,2013-05-12 02:46:00,
2013-05-11 22:51:00,69.0,68.1,29.99,NE,50,0.0,0.0,97,0.00,,,0.38,WUHU216DAVISVP2,2013-05-12 02:51:00,
2013-05-11 22:57:00,69.0,68.1,29.99,NE,49,0.0,0.0,97,0.00,,,0.38,WUHU216DAVISVP2,2013-05-12 02:57:00,
2013-05-11 23:02:00,68.9,68.0,29.99,NE,49,0.0,0.0,97,0.00,,,0.38,WUHU216DAVISVP2,2013-05-12 03:02:00,
2013-05-11 23:07:00,68.8,67.9,29.99,NE,48,0.0,0.0,97,0.00,,,0.38,WUHU216DAVISVP2,2013-05-12 03:07:00,
2013-05-11 23:13:00,68.7,67.8,29.99,NE,48,0.0,0.0,97,0.00,,,0.38,WUHU216DAVISVP2,2013-05-12 03:13:00,
2013-05-11 23:18:00,68.6,67.7,29.98,NE,48,0.0,0.0,97,0.00,,,0.38,WUHU216DAVISVP2,2013-05-12 03:18:00,
2013-05-11 23:23:00,68.5,67.6,29.98,NE,47,0.0,0.0,97,0.00,,,0.38,WUHU216DAVISVP2,2013-05-12 03:23:00,
2013-05-11 23:28:00,68.5,67.6,29.98,NE,46,0.0,0.0,97,0.00,,,0.38,WUHU216DAVISVP2,2013-05-12 03:28:00,
2013-05-11 23:33:00,68.4,67.5,29.98,NE,46,0.0,0.0,97,0.00,,,0.38,WUHU216DAVISVP2,2013-05-12 03:33:00,
2013-05-11 23:38:00,68.3,67.4,29.99,NE,46,0.0,0.0,97,0.00,,,0.38,WUHU216DAVISVP2,2013-05-12 03:38:00,
2013-05-11 23:44:00,68.1,67.2,29.99,NE,46,0.0,0.0,97,0.00,,,0.38,WUHU216DAVISVP2,2013-05-12 03:44:00,
2013-05-11 23:49:00,68.0,67.1,29.99,NE,46,0.0,0.0,97,0.00,,,0.38,WUHU216DAVISVP2,2013-05-12 03:49:00,
2013-05-11 23:54:00,68.0,67.1,29.99,NE,46,0.0,0.0,97,0.00,,,0.38,WUHU216DAVISVP2,2013-05-12 03:54:00,
2013-05-11 23:59:00,68.0,67.4,30.00,NE,46,0.0,0.0,98,0.00,,,0.00,WUHU216DAVISVP2,2013-05-12 03:59:00,